Location: Bazinghen
(50.8246°N, 1.6616°E)
Time: 09:17:38
(UTC+00:00)

NOSS 3-4 (C) - Pass Details

Date: 09 April 2020
Orbit: 897 x 1316 km, 63.4° (Epoch: 21 May)

Event Time Altitude Azimuth Distance (km) Brightness Sun altitude
Rises 19:23:54 0° 315° (NW) 3,807 8.1 -7.5°
Reaches altitude 10° 19:26:26 10° 312° (NW) 2,907 7.3 -7.8°
Maximum altitude 19:33:17 65° 233° (SW) 1,262 4.3 -8.8°
Drops below altitude 10° 19:40:50 10° 154° (SSE) 3,191 5.7 -9.9°
Enters shadow 19:42:37 - 153° (SSE) 3,807 6.1 -10.1°
